CW1780 Weather Reports


time (UTC)temp
C
wind
direction
speed
KPH
gust
KPH
rain 1hr
cm
rain 24hr
cm
rain mn
cm
humidity
%
barometer
mb
20260510190003 23 343 1.6 8.0 0.00 0.00 0.00 49 1015.9
20260510185007 23 339 0.0 14.5 0.00 0.00 0.00 46 1015.8
20260510184024 22 352 0.0 6.4 0.00 0.00 0.00 53 1016.0
20260510183024 22 78 1.6 4.8 0.00 0.00 0.00 51 1016.1
20260510182003 23 355 1.6 6.4 0.00 0.00 0.00 52 1016.1
20260510181024 23 49 1.6 11.3 0.00 0.00 0.00 47 1016.1
20260510180003 23 335 1.6 6.4 0.00 0.00 0.00 50 1016.2
20260510175003 22 57 1.6 9.7 0.00 0.00 0.00 52 1016.2
20260510174003 22 78 1.6 9.7 0.00 0.00 0.00 53 1016.4
20260510173003 22 96 3.2 9.7 0.00 0.00 0.00 51 1016.4
20260510172003 22 336 1.6 9.7 0.00 0.00 0.00 49 1016.5
20260510171003 22 85 1.6 11.3 0.00 0.00 0.00 47 1016.6
20260510170003 22 63 1.6 12.9 0.00 0.00 0.00 50 1016.7
20260510165024 22 105 1.6 9.7 0.00 0.00 0.00 50 1016.6
20260510164024 21 106 1.6 14.5 0.00 0.00 0.00 58 1016.7
20260510163003 21 79 3.2 9.7 0.00 0.00 0.00 54 1016.7
20260510162003 21 64 1.6 11.3 0.00 0.00 0.00 53 1016.8
20260510161003 21 83 3.2 16.1 0.00 0.00 0.00 55 1016.9
20260510160003 21 84 3.2 8.0 0.00 0.00 0.00 54 1017.0
20260510155003 21 78 1.6 17.7 0.00 0.00 0.00 53 1016.8
20260510154003 21 65 1.6 8.0 0.00 0.00 0.00 55 1016.8
20260510153003 20 72 1.6 11.3 0.00 0.00 0.00 60 1016.9
20260510152004 20 85 1.6 12.9 0.00 0.00 0.00 57 1017.0
20260510151003 20 73 3.2 12.9 0.00 0.00 0.00 61 1016.9
20260510150003 20 302 1.6 9.7 0.00 0.00 0.00 60 1016.8
20260510145003 19 319 1.6 9.7 0.00 0.00 0.00 65 1016.8
20260510144003 18 305 1.6 12.9 0.00 0.00 0.00 64 1016.7
20260510143003 18 308 1.6 11.3 0.00 0.00 0.00 66 1016.9
20260510142004 18 355 1.6 11.3 0.00 0.00 0.00 67 1016.8
20260510141003 17 337 1.6 8.0 0.00 0.00 0.00 68 1016.8
20260510140003 17 306 1.6 12.9 0.00 0.00 0.00 70 1016.9
20260510135003 17 316 1.6 8.0 0.00 0.00 0.00 72 1016.9
20260510134024 16 87 1.6 9.7 0.00 0.00 0.00 73 1016.9
20260510133003 16 287 1.6 9.7 0.00 0.00 0.00 76 1017.0
20260510132024 15 77 1.6 12.9 0.00 0.00 0.00 77 1017.0
20260510131003 15 236 0.0 12.9 0.00 0.00 0.00 80 1016.9
20260510130004 14 85 0.0 4.8 0.00 0.00 0.00 83 1016.9
20260510125003 13 92 1.6 12.9 0.00 0.00 0.00 85 1016.8
20260510124003 13 115 0.0 14.5 0.00 0.00 0.00 87 1016.9
20260510123024 12 107 0.0 8.0 0.00 0.00 0.00 89 1016.9
20260510122006 12 123 0.0 8.0 0.00 0.00 0.00 93 1016.7
20260510121024 11 138 0.0 8.0 0.00 0.00 0.00 95 1016.6
20260510120003 10 102 0.0 8.0 0.00 0.00 0.00 97 1016.4
20260510115003 10 0 0.0 0.0 0.00 0.00 0.00 97 1016.4
20260510114003 8 0 0.0 0.0 0.00 0.00 0.00 96 1016.3
20260510113003 8 0 0.0 0.0 0.00 0.00 0.00 96 1016.3
20260510112024 7 0 0.0 0.0 0.00 0.00 0.00 96 1016.1
20260510111003 6 0 0.0 0.0 0.00 0.00 0.00 96 1015.9
20260510110003 6 0 0.0 0.0 0.00 0.00 0.00 95 1015.7
20260510105003 6 0 0.0 0.0 0.00 0.00 0.00 95 1015.5
20260510104003 6 0 0.0 0.0 0.00 0.00 0.00 95 1015.3
20260510103003 6 0 0.0 0.0 0.00 0.00 0.00 94 1015.1
20260510102003 6 0 0.0 0.0 0.00 0.00 0.00 94 1015.0
20260510101003 6 0 0.0 0.0 0.00 0.00 0.00 94 1015.0
20260510100004 6 0 0.0 0.0 0.00 0.00 0.00 94 1015.0
20260510095004 6 0 0.0 0.0 0.00 0.00 0.00 94 1014.8
20260510094010 6 0 0.0 0.0 0.00 0.00 0.00 94 1014.6
20260510093011 6 0 0.0 0.0 0.00 0.00 0.00 94 1014.7
20260510092003 6 0 0.0 0.0 0.00 0.00 0.00 93 1014.6
20260510091003 6 0 0.0 0.0 0.00 0.00 0.00 93 1014.6
20260510090003 7 0 0.0 0.0 0.00 0.00 0.00 93 1014.6
20260510085003 7 0 0.0 0.0 0.00 0.00 0.00 93 1014.4
20260510084003 7 0 0.0 0.0 0.00 0.00 0.00 93 1014.3
20260510083003 7 0 0.0 0.0 0.00 0.00 0.00 93 1014.2
20260510082003 7 0 0.0 0.0 0.00 0.00 0.00 94 1014.2
20260510081003 7 0 0.0 0.0 0.00 0.00 0.00 93 1014.2
20260510080003 7 0 0.0 0.0 0.00 0.00 0.00 93 1014.0
20260510075024 7 0 0.0 0.0 0.00 0.00 0.00 93 1014.0
20260510074003 7 0 0.0 0.0 0.00 0.00 0.00 92 1013.9
20260510073003 7 0 0.0 0.0 0.00 0.00 0.00 92 1013.8
20260510072003 8 0 0.0 0.0 0.00 0.00 0.00 92 1013.9
20260510071024 8 0 0.0 0.0 0.00 0.00 0.00 92 1013.8
20260510070004 8 0 0.0 0.0 0.00 0.00 0.00 92 1013.9
20260510065003 8 0 0.0 0.0 0.00 0.00 0.00 92 1013.8
20260510064024 8 0 0.0 0.0 0.00 0.00 0.00 92 1013.7
20260510063003 8 0 0.0 0.0 0.00 0.00 0.00 92 1013.7
20260510062024 8 0 0.0 0.0 0.00 0.00 0.00 92 1013.8
20260510061003 8 0 0.0 0.0 0.00 0.00 0.00 91 1013.9
20260510060029 8 0 0.0 0.0 0.00 0.00 0.00 90 1013.9
20260510055008 8 0 0.0 0.0 0.00 0.00 0.00 90 1013.9
20260510054003 8 0 0.0 0.0 0.00 0.00 0.00 89 1013.9
20260510053024 8 0 0.0 0.0 0.00 0.00 0.00 89 1013.9
20260510052003 9 0 0.0 0.0 0.00 0.00 0.00 92 1013.9
20260510051004 9 0 0.0 0.0 0.00 0.00 0.00 88 1013.7
20260510050003 9 0 0.0 0.0 0.00 0.00 0.00 88 1013.9
20260510045003 10 0 0.0 0.0 0.00 0.00 0.00 87 1013.9
20260510044003 10 0 0.0 0.0 0.00 0.00 0.00 87 1013.8
20260510043024 10 0 0.0 0.0 0.00 0.00 0.00 87 1013.8
20260510042003 10 0 0.0 0.0 0.00 0.00 0.00 86 1013.7
20260510041003 10 0 0.0 0.0 0.00 0.00 0.00 86 1013.4
20260510040004 10 0 0.0 0.0 0.00 0.00 0.00 86 1013.6
20260510035003 10 0 0.0 0.0 0.00 0.00 0.00 84 1013.6
20260510034003 11 0 0.0 0.0 0.00 0.00 0.00 83 1013.4
20260510033003 11 0 0.0 0.0 0.00 0.00 0.00 83 1013.5
20260510032003 11 0 0.0 0.0 0.00 0.00 0.00 82 1013.4
20260510031024 11 0 0.0 0.0 0.00 0.00 0.00 80 1013.3
20260510030003 12 0 0.0 0.0 0.00 0.00 0.00 80 1013.1
20260510025003 12 0 0.0 0.0 0.00 0.00 0.00 78 1013.1
20260510024003 12 0 0.0 0.0 0.00 0.00 0.00 78 1013.1
20260510023003 12 0 0.0 0.0 0.00 0.00 0.00 76 1013.1
20260510022003 13 0 0.0 0.0 0.00 0.00 0.00 76 1013.0
20260510021003 13 0 0.0 0.0 0.00 0.00 0.00 76 1012.9
20260510020004 13 0 0.0 0.0 0.00 0.00 0.00 75 1012.8
20260510015003 13 0 0.0 0.0 0.00 0.00 0.00 75 1012.4
20260510014003 13 0 0.0 0.0 0.00 0.00 0.00 75 1012.5
20260510013003 13 0 0.0 0.0 0.00 0.00 0.00 73 1012.3
20260510012003 14 0 0.0 0.0 0.00 0.00 0.00 72 1012.1
20260510011003 15 0 0.0 0.0 0.00 0.00 0.00 70 1012.0
20260510010003 15 0 0.0 0.0 0.00 0.00 0.00 68 1011.7
20260510005003 16 0 0.0 0.0 0.00 0.00 0.00 66 1011.5
20260510004003 16 0 0.0 0.0 0.00 0.00 0.00 64 1011.3
20260510003004 17 0 0.0 0.0 0.00 0.00 0.00 62 1011.3
20260510002003 17 0 0.0 0.0 0.00 0.00 0.00 60 1011.4
20260510001003 17 0 0.0 0.0 0.00 0.00 0.00 59 1011.2
20260510000003 18 164 0.0 1.6 0.00 0.00 0.00 57 1011.3
20260509235003 18 161 0.0 4.8 0.00 0.00 0.00 56 1011.3
20260509234003 18 117 0.0 3.2 0.00 0.00 0.00 54 1011.1
20260509233003 19 76 0.0 1.6 0.00 0.00 0.00 54 1010.9
20260509232024 20 99 1.6 3.2 0.00 0.00 0.00 53 1010.9
20260509231003 20 85 0.0 8.0 0.00 0.00 0.00 51 1010.8
20260509230004 20 110 1.6 6.4 0.00 0.00 0.00 54 1010.5
20260509225003 20 343 1.6 8.0 0.00 0.00 0.00 54 1010.7
20260509224004 20 34 1.6 4.8 0.00 0.00 0.00 53 1010.5
20260509223003 20 355 1.6 9.7 0.00 0.00 0.00 55 1010.4
20260509222003 20 325 1.6 6.4 0.00 0.00 0.00 55 1010.7
20260509221008 20 338 0.0 6.4 0.00 0.00 0.00 52 1010.7
20260509220007 20 336 1.6 6.4 0.00 0.00 0.00 55 1010.7
20260509215024 20 340 1.6 9.7 0.00 0.00 0.00 53 1010.7
20260509214024 20 61 0.0 8.0 0.00 0.00 0.00 57 1010.6
20260509213024 19 79 1.6 4.8 0.00 0.00 0.00 58 1010.5
20260509212024 19 50 1.6 8.0 0.00 0.00 0.00 54 1010.5
20260509211003 20 51 3.2 12.9 0.00 0.00 0.00 56 1010.3
20260509210003 20 97 3.2 8.0 0.00 0.00 0.00 55 1010.3
20260509205003 20 356 3.2 11.3 0.00 0.00 0.00 54 1010.3
20260509204003 20 94 3.2 14.5 0.00 0.00 0.00 56 1010.3
20260509203003 20 7 3.2 20.9 0.00 0.00 0.00 52 1010.3
20260509202003 20 48 1.6 12.9 0.00 0.00 0.00 51 1010.2
20260509201003 20 53 1.6 11.3 0.00 0.00 0.00 53 1010.2
20260509200003 20 80 3.2 9.7 0.00 0.00 0.00 52 1010.2
20260509195003 20 94 3.2 12.9 0.00 0.00 0.00 52 1010.3
20260509194024 20 4 3.2 12.9 0.00 0.00 0.00 52 1010.2
20260509193003 20 15 3.2 11.3 0.00 0.00 0.00 54 1010.2
20260509192003 20 57 3.2 14.5 0.00 0.00 0.00 54 1010.3
20260509191003 19 90 4.8 16.1 0.00 0.00 0.00 54 1010.2